Hourly Weather Barninek

Today, 21 September, Monday

Time Temperature Precipitation Wind Pressure Humidity
00:00 +13°C° 0 mm 2 mps 765 mmHg 69%
01:00 +13°C° 0 mm 2 mps 765 mmHg 66%
02:00 +12°C° 0 mm 2 mps 765 mmHg 66%
03:00 +12°C° 0 mm 2 mps 765 mmHg 66%
04:00 +10°C° 0 mm 2 mps 765 mmHg 66%
05:00 +12°C° 0 mm 2 mps 765 mmHg 66%
06:00 +12°C° 0 mm 2 mps 765 mmHg 66%
07:00 +12°C° 0 mm 2 mps 765 mmHg 66%
08:00 +14°C° 0 mm 2 mps 764 mmHg 60%
09:00 +17°C° 0 mm 2 mps 764 mmHg 54%
10:00 +19°C° 0 mm 2 mps 764 mmHg 48%
11:00 +20°C° 0 mm 2 mps 764 mmHg 46%
12:00 +22°C° 0 mm 1 mps 764 mmHg 45%
13:00 +23°C° 0 mm 1 mps 764 mmHg 43%
14:00 +23°C° 0 mm 1 mps 763 mmHg 46%
15:00 +23°C° 0 mm 1 mps 763 mmHg 48%
16:00 +23°C° 0 mm 1 mps 762 mmHg 51%
17:00 +21°C° 0 mm 1 mps 762 mmHg 57%
18:00 +19°C° 0 mm 1 mps 762 mmHg 62%
19:00 +16°C° 0 mm 1 mps 762 mmHg 68%
20:00 +16°C° 0 mm 1 mps 762 mmHg 68%
21:00 +15°C° 0 mm 2 mps 762 mmHg 69%
22:00 +15°C° 0 mm 2 mps 762 mmHg 70%
23:00 +15°C° 0 mm 2 mps 761 mmHg 71%

Tomorrow, 22 September, Tuesday

Time Temperature Precipitation Wind Pressure Humidity
00:00 +14°C° 0 mm 3 mps 761 mmHg 72%
01:00 +13°C° 0 mm 3 mps 761 mmHg 73%
02:00 +13°C° 0 mm 3 mps 761 mmHg 74%
03:00 +13°C° 0 mm 3 mps 760 mmHg 76%
04:00 +14°C° 0 mm 2 mps 760 mmHg 77%
05:00 +13°C° 0 mm 3 mps 760 mmHg 76%
06:00 +14°C° 0 mm 3 mps 760 mmHg 75%
07:00 +14°C° 0 mm 3 mps 760 mmHg 74%
08:00 +17°C° 0 mm 3 mps 760 mmHg 67%
09:00 +19°C° 0 mm 3 mps 759 mmHg 61%
10:00 +23°C° 0 mm 2 mps 759 mmHg 54%
11:00 +24°C° 0 mm 3 mps 759 mmHg 51%
12:00 +25°C° 0 mm 3 mps 758 mmHg 47%
13:00 +26°C° 0 mm 3 mps 758 mmHg 43%
14:00 +25°C° 0 mm 3 mps 757 mmHg 45%
15:00 +25°C° 0 mm 3 mps 757 mmHg 48%
16:00 +25°C° 0 mm 3 mps 756 mmHg 50%
17:00 +22°C° 0 mm 3 mps 756 mmHg 55%
18:00 +20°C° 0 mm 3 mps 756 mmHg 60%
19:00 +18°C° 0 mm 3 mps 756 mmHg 65%
20:00 +18°C° 0 mm 3 mps 756 mmHg 67%
21:00 +17°C° 0 mm 3 mps 755 mmHg 68%
22:00 +17°C° 0 mm 3 mps 755 mmHg 69%
23:00 +17°C° 0 mm 3 mps 755 mmHg 69%

Day after tomorrow, 23 September, Wednesday

Time Temperature Precipitation Wind Pressure Humidity
00:00 +17°C° 0 mm 4 mps 755 mmHg 70%
01:00 +15°C° 0 mm 4 mps 755 mmHg 70%
02:00 +15°C° 0 mm 4 mps 755 mmHg 72%
03:00 +16°C° 0 mm 3 mps 755 mmHg 75%
04:00 +14°C° 0 mm 3 mps 755 mmHg 77%
05:00 +16°C° 0 mm 3 mps 755 mmHg 77%
06:00 +16°C° 0 mm 3 mps 755 mmHg 78%
07:00 +16°C° 0 mm 3 mps 755 mmHg 78%
08:00 +18°C° 0 mm 3 mps 755 mmHg 72%
09:00 +20°C° 0 mm 3 mps 755 mmHg 66%
10:00 +23°C° 0 mm 2 mps 755 mmHg 60%
11:00 +24°C° 0 mm 2 mps 755 mmHg 57%
12:00 +25°C° 0 mm 2 mps 754 mmHg 54%
13:00 +26°C° 0 mm 1 mps 754 mmHg 50%
14:00 +25°C° 0 mm 1 mps 754 mmHg 53%
15:00 +25°C° 0 mm 1 mps 754 mmHg 56%
16:00 +24°C° 0 mm 2 mps 754 mmHg 59%
17:00 +23°C° 0 mm 2 mps 754 mmHg 64%
18:00 +20°C° 0 mm 2 mps 754 mmHg 68%
19:00 +19°C° 0 mm 2 mps 754 mmHg 73%
20:00 +18°C° 0 mm 2 mps 754 mmHg 74%
21:00 +18°C° 0 mm 2 mps 754 mmHg 76%
22:00 +18°C° 0 mm 2 mps 754 mmHg 77%
23:00 +18°C° 0 mm 2 mps 754 mmHg 77%

24 September, Thursday

Time Temperature Precipitation Wind Pressure Humidity
00:00 +18°C° 0 mm 2 mps 754 mmHg 78%
01:00 +18°C° 0 mm 2 mps 754 mmHg 79%
02:00 +17°C° 0 mm 2 mps 753 mmHg 80%
03:00 +17°C° 0 mm 2 mps 753 mmHg 82%
04:00 +17°C° 0 mm 2 mps 753 mmHg 83%
05:00 +17°C° 0 mm 3 mps 753 mmHg 82%
06:00 +17°C° 0 mm 3 mps 753 mmHg 80%
07:00 +17°C° 0 mm 4 mps 753 mmHg 79%
08:00 +19°C° 0 mm 4 mps 753 mmHg 71%
09:00 +21°C° 0 mm 5 mps 753 mmHg 63%
10:00 +23°C° 0 mm 5 mps 753 mmHg 55%
11:00 +23°C° 0 mm 6 mps 753 mmHg 52%
12:00 +24°C° 0 mm 6 mps 753 mmHg 49%
13:00 +24°C° 0 mm 6 mps 753 mmHg 47%
14:00 +24°C° 0.1 mm 6 mps 754 mmHg 52%
15:00 +23°C° 0.1 mm 5 mps 754 mmHg 57%
16:00 +23°C° 0.1 mm 5 mps 754 mmHg 63%
17:00 +21°C° 0.2 mm 4 mps 754 mmHg 70%
18:00 +19°C° 0.2 mm 4 mps 755 mmHg 78%
19:00 +17°C° 0.2 mm 3 mps 755 mmHg 86%
20:00 +17°C° 0 mm 3 mps 755 mmHg 85%
21:00 +16°C° 0 mm 2 mps 755 mmHg 85%
22:00 +16°C° 0 mm 2 mps 755 mmHg 85%
23:00 +16°C° 0 mm 3 mps 755 mmHg 85%

25 September, Friday

Time Temperature Precipitation Wind Pressure Humidity
00:00 +16°C° 0 mm 3 mps 755 mmHg 86%
01:00 +15°C° 0 mm 4 mps 754 mmHg 87%
02:00 +17°C° 0 mm 4 mps 754 mmHg 86%
03:00 +17°C° 0 mm 4 mps 753 mmHg 85%
04:00 +17°C° 0 mm 4 mps 753 mmHg 84%
05:00 +17°C° 0.2 mm 4 mps 753 mmHg 84%
06:00 +17°C° 0.2 mm 3 mps 752 mmHg 84%
07:00 +17°C° 0.2 mm 3 mps 752 mmHg 84%
08:00 +18°C° 0.1 mm 3 mps 752 mmHg 82%
09:00 +19°C° 0.1 mm 3 mps 751 mmHg 79%
10:00 +20°C° 0.1 mm 3 mps 751 mmHg 77%
11:00 +19°C° 0.2 mm 4 mps 751 mmHg 81%
12:00 +18°C° 0.2 mm 4 mps 751 mmHg 85%
13:00 +16°C° 0.2 mm 5 mps 751 mmHg 90%
14:00 +15°C° 1 mm 5 mps 750 mmHg 91%
15:00 +15°C° 1 mm 6 mps 750 mmHg 92%
16:00 +14°C° 1 mm 6 mps 750 mmHg 93%
17:00 +13°C° 1.5 mm 6 mps 750 mmHg 92%
18:00 +13°C° 1.5 mm 5 mps 750 mmHg 91%
19:00 +12°C° 1.5 mm 5 mps 749 mmHg 91%
20:00 +12°C° 1.2 mm 5 mps 749 mmHg 91%
21:00 +12°C° 1.2 mm 5 mps 749 mmHg 91%
22:00 +12°C° 1.2 mm 5 mps 749 mmHg 91%
23:00 +12°C° 1.3 mm 5 mps 749 mmHg 91%

26 September, Saturday

Time Temperature Precipitation Wind Pressure Humidity
00:00 +12°C° 1.3 mm 5 mps 749 mmHg 91%
01:00 +12°C° 1.3 mm 5 mps 749 mmHg 92%
02:00 +12°C° 1.3 mm 5 mps 749 mmHg 92%
03:00 +12°C° 1.3 mm 5 mps 749 mmHg 92%
04:00 +11°C° 1.3 mm 6 mps 749 mmHg 92%
05:00 +11°C° 0.7 mm 6 mps 749 mmHg 90%
06:00 +11°C° 0.7 mm 6 mps 749 mmHg 89%
07:00 +11°C° 0.7 mm 6 mps 749 mmHg 88%
08:00 +11°C° 0.3 mm 6 mps 749 mmHg 84%
09:00 +13°C° 0.3 mm 5 mps 750 mmHg 80%
10:00 +13°C° 0.3 mm 5 mps 750 mmHg 77%
11:00 +13°C° 0 mm 5 mps 750 mmHg 75%
12:00 +13°C° 0 mm 5 mps 751 mmHg 74%
13:00 +14°C° 0 mm 4 mps 751 mmHg 73%
14:00 +14°C° 0 mm 4 mps 751 mmHg 72%
15:00 +14°C° 0 mm 4 mps 751 mmHg 72%
16:00 +14°C° 0 mm 4 mps 751 mmHg 72%
17:00 +13°C° 0 mm 4 mps 751 mmHg 74%
18:00 +12°C° 0 mm 3 mps 751 mmHg 77%
19:00 +11°C° 0 mm 3 mps 751 mmHg 80%
20:00 +11°C° 0 mm 3 mps 751 mmHg 79%
21:00 +11°C° 0 mm 3 mps 751 mmHg 78%
22:00 +12°C° 0 mm 3 mps 752 mmHg 78%
23:00 +12°C° 0 mm 3 mps 751 mmHg 77%
Show more